KF5CFW Weather Reports


time (UTC)temp
C
wind
direction
speed
KPH
gust
KPH
rain 1hr
cm
rain 24hr
cm
rain mn
cm
humidity
%
barometer
mb
20260508224526 24 167 0.0 1.6 0.00 0.00 0.00 50 1007.6
20260508223014 25 78 0.0 1.6 0.00 0.00 0.00 53 1007.6
20260508221525 25 162 0.0 1.6 0.00 0.00 0.00 53 1007.8
20260508220006 24 153 0.0 1.6 0.00 0.00 0.00 50 1008.0
20260508214501 23 170 0.0 1.6 0.00 0.00 0.00 52 1008.2
20260508213057 23 164 0.0 1.6 0.00 0.00 0.00 52 1008.3
20260508211553 23 142 0.0 3.2 0.00 0.00 0.00 50 1008.7
20260508210048 22 165 0.0 1.6 0.00 0.00 0.00 48 1008.9
20260508204544 21 243 0.0 1.6 0.00 0.00 0.00 39 1009.2
20260508203040 21 156 0.0 1.6 0.00 0.00 0.00 48 1008.6
20260508201535 21 157 0.0 1.6 0.00 0.00 0.00 54 1009.7
20260508200043 22 285 0.0 0.0 0.00 0.00 0.00 56 1010.5
20260508194526 22 153 0.0 1.6 0.00 0.00 0.00 55 1010.4
20260508193021 23 177 0.0 1.6 0.00 0.00 0.00 55 1010.2
20260508191519 23 154 0.0 3.2 0.00 0.00 0.00 56 1010.2
20260508190012 23 155 0.0 1.6 0.00 0.00 0.00 56 1010.5
20260508184508 23 151 0.0 1.6 0.00 0.00 0.00 56 1010.6
20260508183004 24 188 0.0 1.6 0.00 0.00 0.00 56 1010.8
20260508181600 24 153 0.0 3.2 0.00 0.00 0.00 55 1011.0
20260508180056 23 152 0.0 1.6 0.00 0.00 0.00 54 1010.9
20260508174550 23 151 0.0 0.0 0.00 0.00 0.00 54 1011.5
20260508173046 22 231 0.0 1.6 0.00 0.00 0.00 54 1011.7
20260508171550 23 98 0.0 1.6 0.00 0.00 0.00 55 1012.1
20260508170038 22 158 0.0 1.6 0.00 0.00 0.00 54 1012.1
20260508164537 21 151 0.0 1.6 0.00 0.00 0.00 51 1012.3
20260508163028 20 145 0.0 0.0 0.00 0.00 0.00 51 1012.5
20260508161524 20 145 0.0 1.6 0.00 0.00 0.00 48 1012.8
20260508160024 19 148 0.0 1.6 0.00 0.00 0.00 48 1013.2
20260508154516 19 145 0.0 1.6 0.00 0.00 0.00 48 1013.5
20260508153011 19 150 0.0 1.6 0.00 0.00 0.00 48 1013.7
20260508151506 19 148 0.0 0.0 0.00 0.00 0.00 47 1013.6
20260508150004 19 95 0.0 0.0 0.00 0.00 0.00 49 1013.7
20260508144558 19 141 0.0 1.6 0.00 0.00 0.00 49 1013.7
20260508143054 19 148 0.0 1.6 0.00 0.00 0.00 47 1013.8
20260508141549 18 140 0.0 1.6 0.00 0.00 0.00 41 1013.9
20260508140044 18 155 0.0 0.0 0.00 0.00 0.00 28 1014.2
20260508134540 17 54 0.0 1.6 0.00 0.00 0.00 14 1014.1
20260508133038 16 166 0.0 0.0 0.00 0.00 0.00 1 1013.9
20260508131531 16 200 0.0 0.0 0.00 0.00 0.00 1 1013.9
20260508130027 16 208 0.0 0.0 0.00 0.00 0.00 1 1014.1
20260508124522 15 208 0.0 0.0 0.00 0.00 0.00 1 1014.2
20260508123019 15 208 0.0 0.0 0.00 0.00 0.00 1 1014.2
20260508121514 15 208 0.0 0.0 0.00 0.00 0.00 1 1014.4
20260508120010 15 208 0.0 0.0 0.00 0.00 0.00 1 1014.1
20260508114505 15 208 0.0 0.0 0.00 0.00 0.00 1 1014.2
20260508113001 15 209 0.0 0.0 0.00 0.00 0.00 1 1014.2
20260508111557 15 209 0.0 0.0 0.00 0.00 0.00 1 1014.1
20260508110056 15 209 0.0 0.0 0.00 0.00 0.00 1 1014.4
20260508104616 15 208 0.0 0.0 0.00 0.00 0.00 1 1014.2
20260508103046 15 208 0.0 0.0 0.00 0.00 0.00 1 1014.0
20260508101541 15 208 0.0 0.0 0.00 0.00 0.00 1 1013.2
20260508100034 15 208 0.0 0.0 0.00 0.00 0.00 1 1013.4
20260508094530 15 208 0.0 0.0 0.00 0.00 0.00 1 1013.6
20260508093026 15 208 0.0 0.0 0.00 0.00 0.00 1 1013.8
20260508091521 15 208 0.0 0.0 0.00 0.00 0.00 1 1013.6
20260508090018 15 208 0.0 0.0 0.00 0.00 0.00 1 1013.3
20260508084512 16 208 0.0 0.0 0.00 0.00 0.00 1 1013.7
20260508083008 15 208 0.0 0.0 0.00 0.00 0.00 1 1013.4
20260508081504 16 208 0.0 0.0 0.00 0.00 0.00 1 1013.9
20260508080110 16 208 0.0 0.0 0.00 0.00 0.00 1 1014.4
20260508074556 16 209 0.0 0.0 0.00 0.00 0.00 1 1014.8
20260508073052 16 209 0.0 0.0 0.00 0.00 0.00 1 1014.8
20260508071549 16 208 0.0 0.0 0.00 0.00 0.00 1 1014.9
20260508070128 16 208 0.0 0.0 0.00 0.00 0.00 15 1014.7
20260508064540 16 208 0.0 0.0 0.00 0.00 0.00 27 1014.6
20260508063037 16 208 0.0 0.0 0.00 0.00 0.00 27 1014.8
20260508061537 16 208 0.0 0.0 0.00 0.00 0.00 29 1014.8
20260508060034 16 208 0.0 0.0 0.00 0.00 0.00 35 1015.1
20260508054532 16 208 0.0 0.0 0.00 0.00 0.00 37 1015.2
20260508053030 16 209 0.0 0.0 0.00 0.00 0.00 39 1015.2
20260508051530 16 208 0.0 0.0 0.00 0.00 0.00 44 1015.3
20260508050024 16 209 0.0 0.0 0.00 0.00 0.00 48 1015.1
20260508044521 16 208 0.0 0.0 0.00 0.00 0.00 50 1015.2
20260508043025 16 209 0.0 0.0 0.00 0.00 0.00 51 1015.1
20260508041512 16 208 0.0 0.0 0.00 0.00 0.00 53 1015.2
20260508040017 16 208 0.0 0.0 0.00 0.00 0.00 54 1015.1
20260508034510 16 208 0.0 0.0 0.00 0.00 0.00 56 1014.8
20260508033058 16 208 0.0 0.0 0.00 0.00 0.00 57 1014.8
20260508031558 16 209 0.0 0.0 0.00 0.00 0.00 59 1014.5
20260508030059 16 208 0.0 0.0 0.00 0.00 0.00 59 1014.5
20260508024556 17 207 0.0 0.0 0.00 0.00 0.00 59 1014.5
20260508023046 17 208 0.0 0.0 0.00 0.00 0.00 59 1014.4
20260508021539 17 208 0.0 0.0 0.00 0.00 0.00 60 1014.4
20260508020035 17 208 0.0 0.0 0.00 0.00 0.00 60 1014.2
20260508014531 17 208 0.0 0.0 0.00 0.00 0.00 60 1014.3
20260508013026 18 208 0.0 0.0 0.00 0.00 0.00 60 1014.2
20260508011522 18 208 0.0 0.0 0.00 0.00 0.00 60 1014.2
20260508010024 18 207 0.0 0.0 0.00 0.00 0.00 60 1014.3
20260508004516 18 208 0.0 0.0 0.00 0.00 0.00 60 1014.3
20260508003011 19 208 0.0 0.0 0.00 0.00 0.00 59 1014.2
20260508001507 19 208 0.0 0.0 0.00 0.00 0.00 59 1014.4
20260508000003 20 208 0.0 0.0 0.00 0.00 0.00 58 1014.5
20260507234559 20 200 0.0 1.6 0.00 0.00 0.00 58 1014.6
20260507233054 20 246 0.0 1.6 0.00 0.00 0.00 58 1014.5
20260507231550 20 205 0.0 1.6 0.00 0.00 0.00 58 1014.5
20260507230046 20 136 0.0 0.0 0.00 0.00 0.00 57 1014.6